Effective Sunday, March 17, 2024, the National Weather Service National Data Buoy Center will discontinue its Dial-A-Buoy Interactive Voice Response system. For more information, see Service Change Notice 24-06 (PDF).

Station BMTW1 - 9445958 - Bremerton, WA Image indicating link to RSS feed of recent meteorological observations for station BMTW1


Conditions at BMTW1 as of
(2:48 am PST)
1048 GMT on 02/26/2024:
     

Click on the graph icon in the table below to see a time series plot of the last five days of that observation.

5-day plot - Wind Direction Wind Direction (WDIR):SSE ( 150 deg true )
5-day plot - Wind Speed Wind Speed (WSPD): 4.1 kts
5-day plot - Wind Gust Wind Gust (GST): 7.0 kts
5-day plot - Atmospheric Pressure Atmospheric Pressure (PRES):29.77 in
5-day plot - Air Temperature Air Temperature (ATMP): 37.9 °F
5-day plot - Wind Chill Wind Chill (CHILL): 34.3 °F
5-day plot - Wind Speed at 10 Meters Wind Speed at 10 meters (WSPD10M): 3.9 kts
5-day plot - Wind Speed at 20 Meters Wind Speed at 20 meters (WSPD20M): 3.9 kts
5-day plot -  Wind Speed, Wind Gust and Atmospheric Pressure Combined plot of Wind Speed, Gust, and Air Pressure
NOS Water Level Observation Network Water Level
Previous observations
TIME
(PST)
5-day plot - Wind Direction
WDIR
 
5-day plot - Wind Speed
WSPD
kts
5-day plot - Wind Gust
GST
kts
5-day plot - Wave Height
WVHT
ft
5-day plot - Dominant Wave Period
DPD
sec
5-day plot - Average Wave Period
APD
sec
5-day plot - Mean Wave Direction
MWD
 
5-day plot - Atmospheric Pressure
PRES
in
5-day plot - Pressure Tendency
PTDY
in
5-day plot - Air Temperature
ATMP
°F
5-day plot - Water Temperature
WTMP
°F
5-day plot - Dew Point
DEWP
°F
5-day plot - Salinity
SAL
psu
5-day plot - Visibility
VIS
nmi
5-day plot - Tide (above MLLW)
TIDE
ft
2024-02-26 02:42 am- 0.0 2.9----29.77- 37.9-----
2024-02-26 02:36 am E 1.9 4.1----29.77- 37.9-----
2024-02-26 02:30 am E 4.1 6.0----29.77- 37.4-----
2024-02-26 02:24 amENE 4.1 6.0----29.76- 37.9-----
2024-02-26 02:18 amENE 5.1 7.0----29.76- 37.9-----
2024-02-26 02:12 amENE 5.1 7.0----29.76- 38.3-----
2024-02-26 02:06 amENE 4.1 7.0----29.76- 38.7-----
2024-02-26 02:00 amENE 4.1 7.0----29.76+0.00 38.5-----
2024-02-26 01:54 am NE 4.1 7.0----29.77- 38.5-----
2024-02-26 01:48 amENE 5.1 7.0----29.77- 38.5-----
2024-02-26 01:42 am NE 2.9 5.1----29.77- 38.8-----
2024-02-26 01:36 am NE 1.9 4.1----29.77- 39.0-----
2024-02-26 01:30 am E 2.9 5.1----29.77- 38.8-----
2024-02-26 01:24 amENE 1.9 5.1----29.77- 39.0-----
2024-02-26 01:18 amENE 5.1 7.0----29.77-------
2024-02-26 01:12 amENE 4.1 6.0----29.77- 39.4-----
2024-02-26 01:06 am NE 1.9 4.1----29.77- 39.9-----
2024-02-26 01:00 am E 4.1 5.1----29.77+0.01 39.4-----
2024-02-26 12:54 am NE 2.9 5.1----29.76- 40.5-----
2024-02-26 12:48 am N 4.1 7.0----29.76-------
2024-02-26 12:42 amNNE 4.1 5.1----29.77- 40.3-----
2024-02-26 12:36 amENE 1.9 9.9----29.77- 40.5-----
2024-02-26 12:30 am NW 7.0 9.9----29.77- 40.5-----
2024-02-26 12:24 amWNW 8.0 14.0----29.77- 40.5-----
2024-02-26 12:18 am NW 9.9 13.0----29.77- 40.5-----
2024-02-26 12:12 am NW 8.0 11.1----29.77- 40.5-----
2024-02-26 12:06 amWNW 9.9 13.0----29.77- 40.5-----
2024-02-26 12:00 am NW 8.9 14.0----29.77+0.03 40.5-----
2024-02-25 11:54 pm NW 8.9 13.0----29.77- 40.3-----
2024-02-25 11:48 pm NW 8.0 13.0----29.77- 40.3-----
2024-02-25 11:42 pm NW 8.0 12.0----29.77- 40.6-----
2024-02-25 11:36 pm NW 7.0 11.1----29.77- 41.2-----
2024-02-25 11:30 pmWNW 9.9 15.0----29.77- 40.8-----
2024-02-25 11:24 pmWNW 8.9 12.0----29.77- 41.0-----
2024-02-25 11:18 pm NW 8.9 15.0----29.77- 41.0-----
2024-02-25 11:12 pmWNW 8.0 12.0----29.77- 41.5-----
2024-02-25 11:06 pm NW 11.1 14.0----29.77- 41.4-----
2024-02-25 11:00 pm NW 11.1 15.0----29.76+0.05 41.4-----
2024-02-25 10:54 pm NW 8.0 15.9----29.76- 41.7-----
2024-02-25 10:48 pm NW 12.0 17.1----29.76-------
2024-02-25 10:42 pmWNW 13.0 18.1----29.76- 41.7-----
2024-02-25 10:36 pm NW 12.0 17.1----29.76- 41.9-----
2024-02-25 10:30 pmWNW 11.1 17.1----29.76- 42.1-----
2024-02-25 10:24 pmWNW 14.0 17.1----29.76- 42.3-----
2024-02-25 10:18 pmWNW 9.9 15.0----29.76-------
2024-02-25 10:12 pm NW 9.9 13.0----29.76- 43.0-----
2024-02-25 10:06 pm NW 11.1 15.0----29.75- 42.6-----
2024-02-25 10:00 pm NW 8.0 11.1----29.75+0.07 43.3-----
2024-02-25 09:54 pmNNW 8.0 12.0----29.75- 43.2-----
2024-02-25 09:48 pmNNW 9.9 12.0----29.75-------
2024-02-25 09:42 pmNNW 8.9 11.1----29.75- 43.2-----
2024-02-25 09:36 pmNNW 8.0 11.1----29.75- 43.3-----
2024-02-25 09:30 pmNNW 8.0 9.9----29.75- 43.3-----
2024-02-25 09:24 pmNNW 8.0 11.1----29.75- 43.5-----
2024-02-25 09:18 pm NW 6.0 8.9----29.74- 43.9-----
2024-02-25 09:12 pm NW 7.0 9.9----29.74- 43.9-----
2024-02-25 09:06 pm NW 6.0 9.9----29.74- 43.7-----
2024-02-25 09:00 pmNNW 7.0 9.9----29.74+0.06 43.9-----
2024-02-25 08:54 pmNNW 8.0 8.9----29.74- 43.9-----
2024-02-25 08:48 pmNNW 7.0 8.9----29.74- 43.9-----
2024-02-25 08:42 pmNNW 7.0 9.9----29.74- 43.7-----
2024-02-25 08:36 pm NW 6.0 8.9----29.73- 43.9-----
2024-02-25 08:30 pm N 8.9 11.1----29.73- 43.7-----
2024-02-25 08:24 pm NW 7.0 11.1----29.72- 43.9-----
2024-02-25 08:18 pmNNW 8.0 9.9----29.72- 43.9-----
2024-02-25 08:12 pm N 6.0 9.9----29.72- 44.1-----
2024-02-25 08:06 pmNNE 6.0 11.1----29.71- 44.1-----
2024-02-25 08:00 pm N 6.0 9.9----29.71+0.06 44.2-----
2024-02-25 07:54 pm N 5.1 8.0----29.71- 44.4-----
2024-02-25 07:48 pmNNE 7.0 9.9----29.71-------
2024-02-25 07:42 pmNNE 6.0 8.9----29.70- 45.1-----
2024-02-25 07:36 pm N 4.1 7.0----29.70- 45.7-----
2024-02-25 07:30 pm NW 1.9 5.1----29.70- 46.2-----
2024-02-25 07:24 pm W 4.1 7.0----29.70- 46.0-----
2024-02-25 07:18 pmWNW 1.9 2.9----29.70- 46.6-----
2024-02-25 07:12 pm NW 1.9 8.9----29.70- 46.2-----
2024-02-25 07:06 pmNNE 5.1 11.1----29.69- 45.9-----
2024-02-25 07:00 pmNNE 8.0 12.0----29.68- 46.2-----
2024-02-25 06:54 pmNNE 7.0 11.1----29.68- 47.1-----
2024-02-25 06:48 pm NE 8.0 12.0----29.68- 47.7-----
2024-02-25 06:42 pmNNE 4.1 9.9----29.68- 48.0-----
2024-02-25 06:36 pm NE 2.9 8.9----29.68- 48.0-----
2024-02-25 06:30 pmNNE 5.1 8.0----29.69- 48.2-----
2024-02-25 06:24 pmNNE 6.0 8.0----29.68- 48.2-----
2024-02-25 06:18 pmNNE 5.1 8.9----29.68-------
2024-02-25 06:12 pm NE 5.1 8.0----29.68- 48.4-----
2024-02-25 06:06 pm E 4.1 8.0----29.68- 48.6-----
2024-02-25 06:00 pm NE 6.0 12.0----29.68+0.03 48.7-----
2024-02-25 05:54 pmENE 6.0 9.9----29.68- 48.7-----
2024-02-25 05:48 pm NE 8.0 12.0----29.67-------
2024-02-25 05:42 pmENE 7.0 12.0----29.67- 48.7-----
2024-02-25 05:36 pm NE 6.0 11.1----29.67- 48.9-----
2024-02-25 05:30 pm E 5.1 12.0----29.67- 49.3-----
2024-02-25 05:24 pmENE 6.0 12.0----29.66- 49.3-----
2024-02-25 05:18 pm E 8.0 15.0----29.66- 49.3-----
2024-02-25 05:12 pmENE 9.9 15.0----29.66- 49.5-----
2024-02-25 05:06 pmENE 8.9 15.0----29.66- 49.6-----
2024-02-25 05:00 pmENE 11.1 15.9----29.65-0.01------
2024-02-25 04:54 pmENE 11.1 19.0----29.65-------
2024-02-25 04:48 pmENE 11.1 19.0----29.65- 50.0-----
2024-02-25 04:42 pm NE 11.1 19.0----29.65- 50.2-----
2024-02-25 04:36 pmENE 11.1 18.1----29.65- 50.2-----
2024-02-25 04:30 pmENE 11.1 18.1----29.65- 50.4-----
2024-02-25 04:24 pmENE 12.0 18.1----29.65- 50.5-----
2024-02-25 04:18 pmENE 9.9 20.0----29.65-------
2024-02-25 04:12 pmENE 14.0 21.0----29.65-------
2024-02-25 04:06 pmENE 12.0 22.9----29.65-------
2024-02-25 04:00 pmENE 14.0 22.0------------
2024-02-25 03:54 pmENE 12.0 20.0------------
2024-02-25 03:48 pm E 12.0 20.0----29.65- 51.6-----
2024-02-25 03:42 pmENE 15.0 25.1----29.65- 51.6-----
2024-02-25 03:36 pmENE 13.0 24.1----29.65- 51.6-----
2024-02-25 03:30 pmENE 13.0 24.1----29.65- 51.8-----
2024-02-25 03:24 pmENE 15.0 22.9----29.65- 51.6-----
2024-02-25 03:18 pmENE 15.0 22.0----29.65- 51.8-----
2024-02-25 03:12 pm E 13.0 25.1----29.65- 52.0-----
2024-02-25 03:00 pmENE 13.0 27.0----29.65- 52.3-----
2024-02-25 02:54 pmENE 17.1 25.1----29.65- 52.0-----
2024-02-25 02:48 pmENE 19.0 27.0----29.65- 52.0-----
2024-02-25 02:42 pmENE 13.0 26.0----29.65- 52.0-----
2024-02-25 02:36 pmENE 17.1 25.1----29.65- 51.6-----
2024-02-25 02:30 pmENE 14.0 28.0----29.66- 51.6-----
2024-02-25 02:24 pmENE 14.0 22.9----29.66- 51.8-----
2024-02-25 02:18 pmENE 15.0 26.0----29.67- 52.0-----
2024-02-25 02:12 pmENE 15.9 22.9----29.67- 51.8-----
2024-02-25 02:06 pmENE 15.0 21.0----29.67- 51.8-----
2024-02-25 02:00 pmENE 18.1 25.1----29.67-0.12 51.6-----
2024-02-25 01:54 pmENE 15.0 22.9----29.67- 51.4-----
2024-02-25 01:48 pmENE 18.1 26.0----29.67-------
2024-02-25 01:42 pmENE 17.1 28.0----29.68-------
2024-02-25 01:36 pmENE 18.1 26.0----29.68-------
2024-02-25 01:30 pm-------29.68-------
2024-02-25 01:24 pm-------29.69-------
2024-02-25 01:18 pmENE 15.0 22.0----29.69- 52.0-----
2024-02-25 01:12 pmENE 15.9 26.0----29.69- 51.6-----
2024-02-25 01:06 pm NE 15.0 22.0----29.70- 50.7-----
2024-02-25 01:00 pm NE 15.0 25.1----29.70-0.10------
2024-02-25 12:54 pm NE 14.0 26.0----29.70-------
2024-02-25 12:48 pm NE 15.0 28.0----29.71- 50.7-----
2024-02-25 12:42 pm NE 11.1 22.0----29.71- 50.7-----
2024-02-25 12:36 pm NE 13.0 25.1----29.72- 50.5-----
2024-02-25 12:30 pmENE 15.0 25.1----29.72- 50.9-----
2024-02-25 12:24 pm NE 13.0 21.0----29.72- 50.5-----
2024-02-25 12:18 pm NE 11.1 21.0----29.73-------
2024-02-25 12:12 pm NE 14.0 22.0----29.74-------
2024-02-25 12:06 pm NE 14.0 22.9----29.74-------
2024-02-25 12:00 pm NE 14.0 22.9------------
2024-02-25 11:54 am NE 13.0 21.0------------
2024-02-25 11:48 am NE 14.0 20.0----29.75-------
2024-02-25 11:42 am NE 11.1 20.0----29.75- 49.8-----
2024-02-25 11:36 am NE 12.0 22.9----29.76- 50.0-----
2024-02-25 11:30 am NE 11.1 21.0----29.76- 49.8-----
2024-02-25 11:24 am NE 13.0 19.0----29.77- 49.6-----
2024-02-25 11:18 am NE 9.9 20.0----29.78- 49.5-----
2024-02-25 11:12 am NE 11.1 21.0----29.78- 49.5-----
2024-02-25 11:06 am NE 8.0 20.0----29.78- 49.1-----
2024-02-25 11:00 am NE 8.9 17.1----29.79-0.06 48.7-----
2024-02-25 10:54 am NE 11.1 15.0----29.79- 48.6-----
2024-02-25 10:48 am NE 9.9 20.0----29.79- 48.4-----
2024-02-25 10:42 am NE 8.0 15.0----29.79- 48.4-----
2024-02-25 10:36 am NE 8.9 18.1----29.79- 48.2-----
2024-02-25 10:30 am NE 9.9 17.1----29.80-------
2024-02-25 10:24 am NE 11.1 18.1----29.80-------
2024-02-25 10:18 amNNE 13.0 21.0----29.80- 48.4-----
2024-02-25 10:12 am NE 9.9 19.0----29.80- 48.4-----
2024-02-25 10:06 am NE 11.1 20.0----29.80- 48.2-----
2024-02-25 10:00 am NE 14.0 22.0----29.80-0.06 48.0-----
2024-02-25 09:54 am NE 13.0 20.0----29.80- 48.0-----
2024-02-25 09:48 am NE 12.0 19.0----29.81- 48.0-----
2024-02-25 09:42 am NE 9.9 17.1----29.81- 48.0-----
2024-02-25 09:36 am NE 9.9 17.1----29.81- 48.0-----
2024-02-25 09:30 am NE 9.9 17.1----29.81- 48.0-----
2024-02-25 09:24 am NE 12.0 17.1----29.82- 47.8-----
2024-02-25 09:18 am NE 11.1 19.0----29.82- 48.0-----
2024-02-25 09:12 am NE 11.1 21.0----29.83- 48.0-----
2024-02-25 09:06 am NE 11.1 15.9----29.83- 47.8-----
2024-02-25 09:00 am NE 12.0 18.1----29.83-0.03 47.8-----
2024-02-25 08:54 am NE 8.0 15.9----29.84- 47.8-----
2024-02-25 08:48 am NE 8.9 18.1----29.84- 48.0-----
2024-02-25 08:42 amENE 9.9 17.1----29.84- 48.0-----
2024-02-25 08:36 am NE 8.9 15.9----29.84- 48.0-----
2024-02-25 08:30 amENE 12.0 20.0----29.84- 48.0-----
2024-02-25 08:24 amENE 9.9 15.9----29.85- 48.0-----
2024-02-25 08:18 amENE 12.0 17.1----29.85-------
2024-02-25 08:12 amENE 11.1 15.9----29.85-------
2024-02-25 08:06 amENE 12.0 19.0----29.85-------
2024-02-25 08:00 amENE 11.1 15.9----29.85-0.04------
2024-02-25 07:54 amENE 9.9 18.1----29.85-------
2024-02-25 07:48 amENE 12.0 17.1----29.85- 47.8-----
2024-02-25 07:42 amENE 11.1 17.1----29.85- 48.0-----
2024-02-25 07:36 amENE 11.1 15.9----29.85- 47.8-----
2024-02-25 07:30 amENE 8.9 15.9------ 47.8-----
2024-02-25 07:24 amENE 11.1 15.9------ 47.8-----
2024-02-25 07:18 amENE 11.1 17.1----29.86-------
2024-02-25 07:12 amENE 8.9 14.0----29.86-------
2024-02-25 07:06 amENE 9.9 15.9----29.85-------
2024-02-25 07:00 amENE 8.9 15.0----29.86-0.04------
2024-02-25 06:54 am NE 8.0 19.0----29.86-------
2024-02-25 06:48 am-------29.86- 47.8-----
2024-02-25 06:42 am-------29.86- 48.0-----
2024-02-25 06:36 am-------29.87- 48.0-----
2024-02-25 06:30 amENE 13.0 20.0------ 48.0-----
2024-02-25 06:24 amENE 12.0 17.1------ 47.8-----
2024-02-25 06:18 amENE 9.9 18.1----29.87-------
2024-02-25 06:12 amENE 11.1 20.0----29.87-------
2024-02-25 06:06 amENE 11.1 22.9----29.87-------
2024-02-25 06:00 amENE 12.0 21.0----29.87-------
2024-02-25 05:54 amENE 14.0 21.0----29.87-------
2024-02-25 05:48 amENE 14.0 22.0----29.87- 48.0-----
2024-02-25 05:42 amENE 13.0 24.1----29.87- 48.0-----
2024-02-25 05:36 am NE 15.0 22.9----29.87- 47.8-----
2024-02-25 05:30 am NE 13.0 21.0----29.87- 48.0-----
2024-02-25 05:24 amENE 13.0 24.1----29.87- 47.8-----
2024-02-25 05:18 amENE 13.0 20.0----29.88- 48.0-----
2024-02-25 05:12 am E 9.9 19.0----29.88- 47.8-----
2024-02-25 05:06 am E 11.1 19.0----29.88- 48.0-----
2024-02-25 05:00 amENE 13.0 21.0----29.89-0.08------
2024-02-25 04:54 amENE 14.0 21.0----29.89-------
2024-02-25 04:48 amENE 15.0 21.0----29.89-------
2024-02-25 04:42 am E 13.0 19.0----29.89- 48.0-----
2024-02-25 04:36 am E 12.0 21.0----29.88- 48.0-----
2024-02-25 04:30 am E 14.0 21.0----29.88- 48.0-----
2024-02-25 04:24 am E 11.1 18.1----29.89- 48.0-----
2024-02-25 04:18 am-------29.89- 48.0-----
2024-02-25 04:12 am-------29.90- 48.0-----
2024-02-25 04:06 am-------29.90- 48.0-----
2024-02-25 04:00 am E 8.9 12.0----29.90-0.08 48.0-----
2024-02-25 03:54 am E 8.9 14.0----29.91- 48.0-----
2024-02-25 03:48 am E 8.9 15.0----29.91- 48.0-----
2024-02-25 03:42 amENE 7.0 15.9----29.91- 48.0-----
2024-02-25 03:36 am E 7.0 13.0----29.92- 48.0-----
2024-02-25 03:30 am E 8.9 15.0----29.92-------
2024-02-25 03:24 amENE 12.0 18.1----29.93-------
2024-02-25 03:18 am E 8.0 13.0------------
2024-02-25 03:12 am E 8.0 13.0------------
2024-02-25 03:06 am E 9.9 15.9------------
2024-02-25 03:00 am E 7.0 13.0------------
2024-02-25 02:54 am E 7.0 11.1------------